This is the latest recevied weather packets stored in our database for station/object N1ORT. If no packets are shown the sender has not sent any weather packets the latest 10 day(s).
| Time | Temp. | Humidity | Pressure | Rain* | Wind** | Luminosity | Snow |
|---|---|---|---|---|---|---|---|
| 1777644944 | 11.11° C | 52% | 1008.2 hPa | 0 mm | - | 796 W/m² | - |
| 1777644642 | 11.11° C | 53% | 1008.1 hPa | 0 mm | - | 780 W/m² | - |
| 1777644338 | 11.11° C | 53% | 1008 hPa | 0 mm | - | 766 W/m² | - |
| 1777644034 | 11.11° C | 52% | 1008 hPa | 0 mm | - | 754 W/m² | - |
| 1777643731 | 11.11° C | 54% | 1007.9 hPa | 0 mm | - | 740 W/m² | - |
| 1777643429 | 11.11° C | 53% | 1008.1 hPa | 0 mm | - | 727 W/m² | - |
| 1777643125 | 11.11° C | 54% | 1007.8 hPa | 0 mm | - | 715 W/m² | - |
| 1777642822 | 11.11° C | 58% | 1007.9 hPa | 0 mm | - | 701 W/m² | - |
| 1777642519 | 10.56° C | 56% | 1007.9 hPa | 0 mm | - | 687 W/m² | - |
| 1777642215 | 10.56° C | 57% | 1007.6 hPa | 0 mm | - | 675 W/m² | - |
| 1777641913 | 11.11° C | 59% | 1007.6 hPa | 0 mm | - | 660 W/m² | - |
| 1777641613 | 10.56° C | 63% | 1007.6 hPa | 0 mm | - | 642 W/m² | - |
| 1777641309 | 11.11° C | 63% | 1007.8 hPa | 0 mm | - | 625 W/m² | - |
| 1777641004 | 10.56° C | 62% | 1007.8 hPa | 0 mm | - | 609 W/m² | - |
| 1777640701 | 10° C | 66% | 1007.8 hPa | 0 mm | - | 593 W/m² | - |
| 1777640397 | 10° C | 68% | 1007.8 hPa | 0 mm | - | 573 W/m² | - |
| 1777640095 | 10° C | 68% | 1007.9 hPa | 0 mm | - | 553 W/m² | - |
| 1777639791 | 10° C | 68% | 1007.8 hPa | 0 mm | - | 533 W/m² | - |
| 1777639489 | 9.44° C | 70% | 1007.7 hPa | 0 mm | - | 515 W/m² | - |
| 1777639185 | 9.44° C | 72% | 1007.7 hPa | 0 mm | - | 496 W/m² | - |
| 1777638882 | 9.44° C | 72% | 1007.6 hPa | 0 mm | - | 477 W/m² | - |
| 1777638577 | 8.89° C | 71% | 1007.8 hPa | 0 mm | - | 459 W/m² | - |
| 1777638274 | 8.89° C | 72% | 1007.9 hPa | 0 mm | - | 442 W/m² | - |
| 1777637970 | 8.89° C | 75% | 1007.5 hPa | 0 mm | - | 370 W/m² | - |
| 1777637667 | 8.33° C | 74% | 1007.4 hPa | 0 mm | - | 301 W/m² | - |
* Rain latest hour (hover to see other rain measurements)
** Current wind speed in m/s (hover to see current wind gust speed)